| time (UTC) | temp F | wind direction | speed knots | gust knots | rain 1hr in | rain 24hr in | rain mn in | humidity % | barometer mb |
| 20260508131540 | 41 | 0.0 | 0.0 | 0.00 | 0.00 | 0.00 | 80 | 1011.0 | |
| 20260508130040 | 41 | 0.0 | 0.0 | 0.00 | 0.00 | 0.00 | 78 | 1011.3 | |
| 20260508124538 | 41 | 0.0 | 0.0 | 0.00 | 0.00 | 0.00 | 79 | 1011.1 | |
| 20260508123038 | 40 | 0.0 | 0.0 | 0.00 | 0.00 | 0.00 | 79 | 1011.1 | |
| 20260508121537 | 40 | 0.0 | 0.0 | 0.00 | 0.00 | 0.00 | 80 | 1011.2 | |
| 20260508120036 | 40 | 0.0 | 0.0 | 0.00 | 0.00 | 0.00 | 81 | 1011.2 | |
| 20260508114535 | 39 | 0.0 | 0.0 | 0.00 | 0.00 | 0.00 | 83 | 1011.3 | |
| 20260508113033 | 39 | 0.0 | 0.0 | 0.00 | 0.00 | 0.00 | 83 | 1011.1 | |
| 20260508111531 | 0 | 0.0 | 0.0 | 0.00 | 0.00 | 0.00 | 1011.2 | ||
| 20260508110027 | 0 | 0.0 | 0.0 | 0.00 | 0.00 | 0.00 | 1011.0 | ||
| 20260508104523 | 0 | 0.0 | 0.0 | 0.00 | 0.00 | 0.00 | 1011.1 | ||
| 20260508103021 | 0 | 0.0 | 0.0 | 0.00 | 0.00 | 0.00 | 1011.0 | ||
| 20260508101514 | 0 | 0.0 | 0.0 | 0.00 | 0.00 | 0.00 | 1011.0 | ||
| 20260508100017 | 0 | 0.0 | 0.0 | 0.00 | 0.00 | 0.00 | 1011.1 | ||
| 20260508094505 | 0 | 0.0 | 0.0 | 0.00 | 0.00 | 0.00 | 1011.1 | ||
| 20260508093100 | 0 | 0.0 | 0.0 | 0.00 | 0.00 | 0.00 | 88 | 1011.0 | |
| 20260508091609 | 37 | 0.0 | 0.0 | 0.00 | 0.00 | 0.00 | 88 | 1010.9 | |
| 20260508090059 | 37 | 0.0 | 0.0 | 0.00 | 0.00 | 0.00 | 88 | 1010.9 | |
| 20260508084612 | 37 | 0.0 | 0.0 | 0.00 | 0.00 | 0.00 | 88 | 1010.7 | |
| 20260508083106 | 37 | 0.0 | 0.0 | 0.00 | 0.00 | 0.00 | 88 | 1010.7 | |
| 20260508081554 | 38 | 0.0 | 0.0 | 0.00 | 0.00 | 0.00 | 88 | 1010.6 | |
| 20260508080106 | 38 | 0.0 | 0.0 | 0.00 | 0.00 | 0.00 | 88 | 1010.4 | |
| 20260508074549 | 38 | 0.0 | 0.0 | 0.00 | 0.00 | 0.00 | 88 | 1010.4 | |
| 20260508073056 | 39 | 0.0 | 0.0 | 0.00 | 0.00 | 0.00 | 89 | 1010.5 | |
| 20260508071548 | 39 | 0.0 | 0.0 | 0.00 | 0.00 | 0.00 | 89 | 1010.6 | |
| 20260508070051 | 39 | 0.0 | 0.0 | 0.00 | 0.00 | 0.00 | 90 | 1010.6 | |
| 20260508064553 | 39 | 0.0 | 0.0 | 0.00 | 0.00 | 0.00 | 90 | 1010.5 | |
| 20260508063045 | 38 | 0.0 | 0.0 | 0.00 | 0.00 | 0.00 | 88 | 1010.4 | |
| 20260508061545 | 38 | 0.0 | 0.0 | 0.00 | 0.00 | 0.00 | 88 | 1010.2 | |
| 20260508060043 | 39 | 0.0 | 0.0 | 0.00 | 0.00 | 0.00 | 87 | 1010.2 | |
| 20260508054546 | 39 | 0.0 | 0.0 | 0.00 | 0.00 | 0.00 | 85 | 1010.2 | |
| 20260508053041 | 40 | 0.0 | 0.0 | 0.00 | 0.00 | 0.00 | 84 | 1010.4 | |
| 20260508051538 | 40 | 0.0 | 0.0 | 0.00 | 0.00 | 0.00 | 83 | 1010.6 | |
| 20260508050040 | 41 | 0.0 | 0.0 | 0.00 | 0.00 | 0.00 | 81 | 1010.7 | |
| 20260508044529 | 41 | 0.0 | 0.0 | 0.00 | 0.00 | 0.00 | 79 | 1010.6 | |
| 20260508043025 | 42 | 0.0 | 0.0 | 0.00 | 0.00 | 0.00 | 77 | 1010.9 | |
| 20260508041524 | 42 | 0.0 | 0.0 | 0.00 | 0.00 | 0.00 | 76 | 1010.9 | |
| 20260508040037 | 43 | 0.0 | 0.0 | 0.00 | 0.00 | 0.00 | 76 | 1010.9 | |
| 20260508034524 | 43 | 0.0 | 0.0 | 0.00 | 0.00 | 0.00 | 73 | 1010.5 | |
| 20260508033019 | 44 | 0.0 | 0.0 | 0.00 | 0.00 | 0.00 | 68 | 1010.4 | |
| 20260508031521 | 44 | 0.0 | 0.0 | 0.00 | 0.00 | 0.00 | 67 | 1010.3 | |
| 20260508030021 | 44 | 0.0 | 0.0 | 0.00 | 0.00 | 0.00 | 64 | 1009.9 | |
| 20260508024523 | 44 | 0.0 | 0.0 | 0.00 | 0.00 | 0.00 | 64 | 1009.7 | |
| 20260508023017 | 44 | 0.0 | 0.0 | 0.00 | 0.00 | 0.00 | 63 | 1009.8 | |
| 20260508021518 | 44 | 0.0 | 0.0 | 0.00 | 0.00 | 0.00 | 63 | 1009.7 | |
| 20260508020016 | 45 | 0.0 | 0.0 | 0.00 | 0.00 | 0.00 | 62 | 1009.7 | |
| 20260508014515 | 45 | 0.0 | 0.0 | 0.00 | 0.00 | 0.00 | 63 | 1009.4 | |
| 20260508013014 | 45 | 0.0 | 0.0 | 0.00 | 0.00 | 0.00 | 62 | 1009.3 | |
| 20260508011516 | 45 | 0.0 | 0.0 | 0.00 | 0.00 | 0.00 | 62 | 1009.3 | |
| 20260508010015 | 45 | 0.0 | 0.0 | 0.00 | 0.00 | 0.00 | 63 | 1009.2 | |
| 20260508004513 | 45 | 0.0 | 0.0 | 0.00 | 0.00 | 0.00 | 65 | 1009.2 | |
| 20260508003012 | 46 | 0.0 | 0.0 | 0.00 | 0.00 | 0.00 | 62 | 1009.1 | |
| 20260508001514 | 47 | 0.0 | 0.0 | 0.00 | 0.00 | 0.00 | 61 | 1009.0 | |
| 20260508000011 | 47 | 0.0 | 0.0 | 0.00 | 0.00 | 0.00 | 59 | 1008.9 | |
| 20260507234518 | 48 | 0.0 | 0.0 | 0.00 | 0.00 | 0.00 | 58 | 1008.8 | |
| 20260507233014 | 48 | 0.0 | 0.0 | 0.00 | 0.00 | 0.00 | 58 | 1008.7 | |
| 20260507231509 | 49 | 0.0 | 0.0 | 0.00 | 0.00 | 0.00 | 55 | 1008.6 | |
| 20260507230014 | 50 | 0.0 | 0.0 | 0.00 | 0.00 | 0.00 | 53 | 1008.7 | |
| 20260507224509 | 50 | 0.0 | 0.0 | 0.00 | 0.00 | 0.00 | 54 | 1008.6 | |
| 20260507223009 | 50 | 0.0 | 0.0 | 0.00 | 0.00 | 0.00 | 54 | 1008.5 | |
| 20260507221506 | 50 | 0.0 | 0.0 | 0.00 | 0.00 | 0.00 | 55 | 1008.5 | |
| 20260507220005 | 50 | 0.0 | 0.0 | 0.00 | 0.00 | 0.00 | 54 | 1008.6 | |
| 20260507214504 | 51 | 0.0 | 0.0 | 0.00 | 0.00 | 0.00 | 52 | 1008.7 | |
| 20260507213007 | 51 | 0.0 | 0.0 | 0.00 | 0.00 | 0.00 | 50 | 1008.8 | |
| 20260507211503 | 51 | 0.0 | 0.0 | 0.00 | 0.00 | 0.00 | 55 | 1008.7 | |
| 20260507210003 | 51 | 0.0 | 0.0 | 0.00 | 0.00 | 0.00 | 52 | 1008.8 | |
| 20260507204501 | 51 | 0.0 | 0.0 | 0.00 | 0.01 | 0.00 | 53 | 1008.7 | |
| 20260507203002 | 53 | 0.0 | 0.0 | 0.00 | 0.01 | 0.00 | 48 | 1008.8 | |
| 20260507201601 | 53 | 0.0 | 0.0 | 0.00 | 0.01 | 0.00 | 49 | 1008.7 | |
| 20260507200106 | 53 | 0.0 | 0.0 | 0.00 | 0.01 | 0.00 | 47 | 1008.8 | |
| 20260507194601 | 53 | 0.0 | 0.0 | 0.00 | 0.01 | 0.00 | 49 | 1008.9 | |
| 20260507193057 | 53 | 0.0 | 0.0 | 0.00 | 0.01 | 0.00 | 49 | 1009.1 | |
| 20260507191556 | 52 | 0.0 | 0.0 | 0.00 | 0.01 | 0.00 | 48 | 1009.1 | |
| 20260507190106 | 53 | 0.0 | 0.0 | 0.00 | 0.01 | 0.00 | 50 | 1009.4 | |
| 20260507184552 | 52 | 0.0 | 0.0 | 0.00 | 0.01 | 0.00 | 50 | 1009.2 | |
| 20260507183111 | 51 | 0.0 | 0.0 | 0.00 | 0.01 | 0.00 | 50 | 1009.5 | |
| 20260507181556 | 50 | 0.0 | 0.0 | 0.00 | 0.01 | 0.00 | 53 | 1009.7 | |
| 20260507180052 | 50 | 0.0 | 0.0 | 0.00 | 0.01 | 0.00 | 56 | 1009.9 | |
| 20260507174559 | 50 | 0.0 | 0.0 | 0.00 | 0.02 | 0.00 | 53 | 1010.0 | |
| 20260507173050 | 50 | 0.0 | 0.0 | 0.00 | 0.02 | 0.00 | 56 | 1010.0 | |
| 20260507171547 | 51 | 0.0 | 0.0 | 0.00 | 0.02 | 0.00 | 52 | 1010.3 | |
| 20260507170047 | 52 | 0.0 | 0.0 | 0.00 | 0.02 | 0.00 | 51 | 1010.1 | |
| 20260507164600 | 51 | 0.0 | 0.0 | 0.00 | 0.04 | 0.00 | 56 | 1010.3 | |
| 20260507163039 | 50 | 0.0 | 0.0 | 0.00 | 0.04 | 0.00 | 53 | 1010.6 | |
| 20260507161550 | 50 | 0.0 | 0.0 | 0.00 | 0.04 | 0.00 | 53 | 1010.8 | |
| 20260507160141 | 50 | 0.0 | 0.0 | 0.00 | 0.04 | 0.00 | 55 | 1010.8 | |
| 20260507154533 | 49 | 0.0 | 0.0 | 0.00 | 0.10 | 0.00 | 61 | 1011.0 | |
| 20260507153035 | 48 | 0.0 | 0.0 | 0.00 | 0.10 | 0.00 | 60 | 1011.1 | |
| 20260507151531 | 47 | 0.0 | 0.0 | 0.00 | 0.10 | 0.00 | 57 | 1011.2 | |
| 20260507150032 | 46 | 0.0 | 0.0 | 0.00 | 0.10 | 0.00 | 62 | 1011.5 | |
| 20260507144532 | 45 | 0.0 | 0.0 | 0.00 | 0.10 | 0.00 | 64 | 1011.6 | |
| 20260507143022 | 45 | 0.0 | 0.0 | 0.00 | 0.10 | 0.00 | 65 | 1011.6 | |
| 20260507141518 | 44 | 0.0 | 0.0 | 0.00 | 0.10 | 0.00 | 66 | 1011.7 | |
| 20260507140018 | 43 | 0.0 | 0.0 | 0.00 | 0.10 | 0.00 | 68 | 1011.8 | |
| 20260507134508 | 43 | 0.0 | 0.0 | 0.00 | 0.10 | 0.00 | 73 | 1011.7 | |
| 20260507133008 | 42 | 0.0 | 0.0 | 0.00 | 0.10 | 0.00 | 76 | 1011.8 |